Palmdale FAWN current weather conditions

sailwx.info

Wind from 275 at 1 knots

Air temperature 15.4° C
Dewpoint 15.1° C

Last reported at 2020-Jan-25 10:00 UTC.
Time now 2020-Jan-25 10:29 UTC

Location: N 26°56' W 081°24'.
View on Google Maps.

See reports from other nearby stations

  
Tides and Currents Weather Stations Pressure Air Temp Water Temp Dewpoint Dewpoint Depression Visibility Wind Speed Wind Dir Waves Ship Positions
date/time (UTC)wind fromknots sea level pressurealtimeterstation pressurevisibilityair tempwater tempwave heightnotes
2020-Jan-25 10:00 275 1 15.4
2020-Jan-25 09:45 289 1 14.1
2020-Jan-25 09:30 273 1 13.8
2020-Jan-25 09:15 262 1 14.0
2020-Jan-25 09:00 276 0 14.1
2020-Jan-25 08:45 263 1 14.2
2020-Jan-25 08:30 261 1 14.1
2020-Jan-25 08:15 263 1 14.2
2020-Jan-25 08:00 299 1 14.5
2020-Jan-25 07:45 229 0 14.6
2020-Jan-25 07:30 136 0 14.8
2020-Jan-25 07:15 180 0 15.1
2020-Jan-25 07:00 192 0 15.3
2020-Jan-25 06:45 225 1 15.4
2020-Jan-25 06:30 274 1 15.7
2020-Jan-25 06:15 259 1 15.9
2020-Jan-25 06:00 267 1 16.2
2020-Jan-25 05:45 264 1 16.3
2020-Jan-25 05:30 235 1 16.6
2020-Jan-25 05:15 280 1 16.5
2020-Jan-25 05:00 297 1 16.3
2020-Jan-25 04:45 281 1 16.3
2020-Jan-25 04:30 276 1 16.6
2020-Jan-25 04:15 247 0 16.9
2020-Jan-25 04:00 262 2 17.1
2020-Jan-25 03:45 279 1 17.3
2020-Jan-25 03:30 285 0 17.7
2020-Jan-25 03:15 265 0 17.9
2020-Jan-25 03:00 293 0 18.3
2020-Jan-25 02:45 262 1 18.7
2020-Jan-25 02:30 260 1 19.1
2020-Jan-25 02:15 265 1 19.2
2020-Jan-25 02:00 244 1 19.4
2020-Jan-25 01:45 202 0 19.6
2020-Jan-25 01:30 300 0 20.0
2020-Jan-25 01:15 087 1 20.6
2020-Jan-25 01:00 002 0 20.9
2020-Jan-25 00:45 211 0 21.2
2020-Jan-25 00:30 289 1 21.1
2020-Jan-25 00:15 252 2 20.7
2020-Jan-25 00:00 306 0 20.7
2020-Jan-24 23:45 055 0 21.2
2020-Jan-24 23:30 082 1 21.7
2020-Jan-24 23:15 081 1 22.2
2020-Jan-24 23:00 090 1 22.6
2020-Jan-24 22:45 092 2 23.0
2020-Jan-24 22:30 115 3 23.4
2020-Jan-24 22:15 101 3 23.6
2020-Jan-24 22:00 114 3 24.1
2020-Jan-24 21:45 120 3 24.5
2020-Jan-24 21:30 091 3 24.8
2020-Jan-24 21:15 101 4 25.6
2020-Jan-24 21:00 107 3 25.9
2020-Jan-24 20:45 118 3 26.3
2020-Jan-24 20:30 145 2 25.8
2020-Jan-24 19:30 167 2 25.9
2020-Jan-24 19:15 102 2 25.7
2020-Jan-24 19:00 202 1 25.3
2020-Jan-24 18:45 156 2 25.2
2020-Jan-24 18:30 135 2 25.5
2020-Jan-24 18:15 149 3 25.2
2020-Jan-24 18:00 146 4 24.6
2020-Jan-24 17:45 156 4 24.4
2020-Jan-24 17:30 137 4 24.4
2020-Jan-24 17:15 154 4 24.2
2020-Jan-24 17:00 147 4 23.5
2020-Jan-24 16:45 129 3 23.3
2020-Jan-24 16:30 124 3 23.0
2020-Jan-24 16:15 122 3 22.8
2020-Jan-24 16:00 130 3 22.5
2020-Jan-24 15:45 123 4 22.3
2020-Jan-24 15:30 118 3 22.1
2020-Jan-24 15:15 117 3 21.9
2020-Jan-24 15:00 121 3 21.5
2020-Jan-24 14:45 104 3 21.1
2020-Jan-24 14:30 121 3 20.5
2020-Jan-24 14:15 121 3 20.2
2020-Jan-24 14:00 102 2 19.6
2020-Jan-24 13:45 094 2 18.4
2020-Jan-24 13:30 071 1 17.9
2020-Jan-24 13:15 080 1 17.7
2020-Jan-24 13:00 082 1 17.6
2020-Jan-24 12:45 072 1 17.5
2020-Jan-24 12:15 096 2 17.6
2020-Jan-24 12:00 095 2 17.6
2020-Jan-24 11:45 091 1 17.5
2020-Jan-24 11:30 099 1 17.5
2020-Jan-24 11:15 098 1 17.5
2020-Jan-24 11:00 082 1 17.6
2020-Jan-24 10:45 087 2 17.6
2020-Jan-24 10:30 087 2 17.6
2020-Jan-24 10:15 092 1 17.6
2020-Jan-24 10:00 097 1 17.5
2020-Jan-24 09:45 098 1 17.4
2020-Jan-24 09:30 099 1 17.2
2020-Jan-24 09:15 095 1 17.3
2020-Jan-24 09:00 086 1 17.1
2020-Jan-24 08:45 058 0 17.0
2020-Jan-24 08:30 055 0 17.2
2020-Jan-24 08:15 107 1 17.4
2020-Jan-24 08:00 084 1 17.5
2020-Jan-24 07:45 095 2 17.4
2020-Jan-24 07:30 104 1 17.0
2020-Jan-24 07:15 125 1 17.2
2020-Jan-24 07:00 109 1 17.4
2020-Jan-24 06:45 114 1 17.6
2020-Jan-24 06:30 106 2 17.7
2020-Jan-24 06:15 107 2 17.6
2020-Jan-24 06:00 110 2 17.6
2020-Jan-24 05:45 106 2 17.7
2020-Jan-24 05:30 102 2 17.8
2020-Jan-24 05:15 097 2 17.7
2020-Jan-24 05:00 097 2 17.3
2020-Jan-24 04:45 078 1 17.2
2020-Jan-24 04:30 066 1 17.2
2020-Jan-24 04:15 052 1 17.2
2020-Jan-24 04:00 074 1 17.3
2020-Jan-24 03:45 053 1 17.3
2020-Jan-24 03:30 083 2 17.4
2020-Jan-24 03:15 087 2 17.5
2020-Jan-24 03:00 084 2 17.6
2020-Jan-24 02:45 079 2 17.7
2020-Jan-24 02:30 081 3 17.9
2020-Jan-24 02:15 090 3 18.0
2020-Jan-24 02:00 087 2 17.9
2020-Jan-24 01:45 073 2 18.0
2020-Jan-24 01:30 058 2 18.2
2020-Jan-24 01:15 065 2 18.5
2020-Jan-24 01:00 072 2 18.6
2020-Jan-24 00:45 051 2 18.7
2020-Jan-24 00:30 040 2 19.1
2020-Jan-24 00:15 052 2 19.4
2020-Jan-24 00:00 049 1 19.5
2020-Jan-23 23:45 076 2 19.9
2020-Jan-23 23:30 098 2 20.5
2020-Jan-23 23:15 094 2 21.0
2020-Jan-23 23:00 057 1 21.7
2020-Jan-23 22:45 084 3 22.1
2020-Jan-23 22:30 073 3 22.6
2020-Jan-23 22:15 078 4 23.5
2020-Jan-23 22:00 080 3 24.5
2020-Jan-23 21:45 049 3 24.4
2020-Jan-23 21:30 046 3 24.2
2020-Jan-23 21:15 064 3 24.3
2020-Jan-23 21:00 059 3 25.2
2020-Jan-23 20:45 057 2 25.0
2020-Jan-23 20:30 028 3 24.1
2020-Jan-23 20:15 053 3 25.1
2020-Jan-23 20:00 093 2 24.7
2020-Jan-23 19:45 081 3 24.4
2020-Jan-23 19:30 049 4 24.8
2020-Jan-23 19:15 109 4 24.6
2020-Jan-23 19:00 098 4 24.4
2020-Jan-23 18:45 079 4 24.4
2020-Jan-23 18:30 086 3 23.1
2020-Jan-23 18:15 060 4 23.9
2020-Jan-23 18:00 067 4 24.1
2020-Jan-23 17:45 075 5 23.8
2020-Jan-23 17:30 079 5 23.1
2020-Jan-23 17:15 060 4 23.0
2020-Jan-23 17:00 037 3 22.8
2020-Jan-23 16:30 007 3 20.9
2020-Jan-23 16:15 359 2 19.7
2020-Jan-23 16:00 356 3 19.0
2020-Jan-23 15:45 006 3 18.8
2020-Jan-23 15:30 332 3 17.9
2020-Jan-23 15:15 020 1 16.3
2020-Jan-23 15:00 325 2 15.2
2020-Jan-23 14:45 316 1 14.5
2020-Jan-23 14:30 112 1 14.0
2020-Jan-23 14:15 015 2 13.5
2020-Jan-23 14:00 357 2 13.2
2020-Jan-23 13:45 006 1 12.9
2020-Jan-23 13:30 017 2 12.6
2020-Jan-23 13:15 004 3 12.5
2020-Jan-23 13:00 002 2 12.3
2020-Jan-23 12:45 014 2 12.1
2020-Jan-23 12:30 031 2 12.1
2020-Jan-23 12:15 022 3 12.0
2020-Jan-23 12:00 023 3 12.0
2020-Jan-23 11:45 034 3 11.9
2020-Jan-23 11:30 021 2 11.9
2020-Jan-23 11:15 018 3 11.9
2020-Jan-23 11:00 019 3 11.8
2020-Jan-23 10:45 020 4 11.8
2020-Jan-23 10:30 014 4 11.7
2020-Jan-23 10:15 021 4 11.6
2020-Jan-23 10:00 017 3 11.5